TimeMST,TemperatureF,Dew PointF,Humidity,Sea Level PressureIn,VisibilityMPH,Wind Direction,Wind SpeedMPH,Gust SpeedMPH,PrecipitationIn,Events,Conditions,WindDirDegrees,DateUTC
12:15 AM,16.5,9.5,74,30.34,10.0,East,3.5,-,N/A,,Clear,90,2014-01-16 07:15:00
12:35 AM,16.5,9.1,73,30.34,10.0,Calm,Calm,-,N/A,,Clear,0,2014-01-16 07:35:00
12:55 AM,13.8,9.0,81,30.34,10.0,East,4.6,-,N/A,,Clear,100,2014-01-16 07:55:00
1:15 AM,12.9,7.9,80,30.34,10.0,Calm,Calm,-,N/A,,Clear,0,2014-01-16 08:15:00
1:35 AM,11.3,5.7,78,30.35,10.0,NE,3.5,-,N/A,,Clear,40,2014-01-16 08:35:00
1:55 AM,11.8,6.3,78,30.36,10.0,Calm,Calm,-,N/A,,Clear,0,2014-01-16 08:55:00
2:15 AM,10.4,5.0,79,30.36,10.0,East,4.6,-,N/A,,Clear,100,2014-01-16 09:15:00
2:35 AM,11.8,5.5,76,30.36,10.0,East,5.8,-,N/A,,Clear,80,2014-01-16 09:35:00
2:55 AM,8.2,2.3,77,30.36,10.0,East,4.6,-,N/A,,Clear,80,2014-01-16 09:55:00
3:15 AM,7.3,3.7,85,30.36,10.0,Calm,Calm,-,N/A,,Clear,0,2014-01-16 10:15:00
3:35 AM,12.7,6.8,77,30.36,10.0,Calm,Calm,-,N/A,,Clear,0,2014-01-16 10:35:00
3:55 AM,10.8,5.5,79,30.36,10.0,ESE,6.9,-,N/A,,Clear,110,2014-01-16 10:55:00
4:15 AM,11.1,5.9,80,30.36,10.0,SE,9.2,-,N/A,,Clear,130,2014-01-16 11:15:00
4:35 AM,9.1,4.3,81,30.35,10.0,Calm,Calm,-,N/A,,Clear,0,2014-01-16 11:35:00
4:55 AM,6.3,1.4,80,30.36,10.0,NE,3.5,-,N/A,,Clear,50,2014-01-16 11:55:00
5:15 AM,5.0,0.5,82,30.36,10.0,Calm,Calm,-,N/A,,Clear,0,2014-01-16 12:15:00
5:35 AM,9.3,4.3,80,30.36,10.0,ESE,6.9,-,N/A,,Clear,120,2014-01-16 12:35:00
5:55 AM,9.0,3.7,79,30.36,10.0,East,4.6,-,N/A,,Clear,80,2014-01-16 12:55:00
6:15 AM,6.8,3.0,84,30.37,10.0,Calm,Calm,-,N/A,,Clear,0,2014-01-16 13:15:00
6:35 AM,8.1,3.2,81,30.37,10.0,ESE,4.6,-,N/A,,Clear,110,2014-01-16 13:35:00
6:55 AM,9.1,4.6,82,30.36,10.0,ESE,8.1,-,N/A,,Clear,110,2014-01-16 13:55:00
7:15 AM,4.3,0.1,83,30.37,10.0,Calm,Calm,-,N/A,,Clear,0,2014-01-16 14:15:00
7:35 AM,7.9,3.7,83,30.38,10.0,SSE,3.5,-,N/A,,Clear,150,2014-01-16 14:35:00
7:55 AM,7.7,2.8,81,30.39,10.0,SE,8.1,-,N/A,,Clear,130,2014-01-16 14:55:00
8:15 AM,8.2,3.0,79,30.39,10.0,ESE,9.2,-,N/A,,Clear,120,2014-01-16 15:15:00
8:35 AM,6.1,0.5,78,30.40,10.0,East,6.9,-,N/A,,Clear,90,2014-01-16 15:35:00
8:55 AM,10.4,4.5,77,30.39,10.0,ESE,5.8,-,N/A,,Clear,110,2014-01-16 15:55:00
9:15 AM,9.3,2.7,74,30.39,10.0,NE,3.5,-,N/A,,Clear,40,2014-01-16 16:15:00
9:35 AM,15.4,7.7,71,30.40,10.0,South,4.6,-,N/A,,Clear,170,2014-01-16 16:35:00
9:55 AM,16.9,8.6,70,30.39,10.0,SE,6.9,-,N/A,,Clear,140,2014-01-16 16:55:00
10:15 AM,19.4,10.2,68,30.40,10.0,ESE,5.8,-,N/A,,Clear,120,2014-01-16 17:15:00
10:35 AM,21.4,11.5,66,30.40,10.0,Calm,Calm,-,N/A,,Clear,0,2014-01-16 17:35:00
10:55 AM,21.6,12.7,69,30.40,10.0,SSE,6.9,-,N/A,,Clear,150,2014-01-16 17:55:00
11:15 AM,23.9,13.3,64,30.39,10.0,SE,4.6,-,N/A,,Clear,130,2014-01-16 18:15:00
11:35 AM,27.5,15.3,60,30.38,10.0,East,4.6,-,N/A,,Clear,90,2014-01-16 18:35:00
11:55 AM,28.6,16.3,60,30.38,10.0,Calm,Calm,-,N/A,,Clear,0,2014-01-16 18:55:00
12:15 PM,30.4,16.7,57,30.36,10.0,Calm,Calm,-,N/A,,Clear,0,2014-01-16 19:15:00
12:35 PM,31.6,14.5,49,30.35,10.0,Calm,Calm,-,N/A,,Clear,0,2014-01-16 19:35:00
12:55 PM,34.3,18.1,52,30.35,10.0,Calm,Calm,-,N/A,,Clear,0,2014-01-16 19:55:00
1:15 PM,32.9,16.7,51,30.34,10.0,Calm,Calm,-,N/A,,Clear,0,2014-01-16 20:15:00
1:35 PM,36.7,18.3,47,30.34,10.0,Calm,Calm,-,N/A,,Clear,0,2014-01-16 20:35:00
1:55 PM,35.2,15.4,44,30.34,10.0,Calm,Calm,-,N/A,,Clear,0,2014-01-16 20:55:00
2:15 PM,34.2,16.0,47,30.33,10.0,Calm,Calm,-,N/A,,Clear,0,2014-01-16 21:15:00
2:35 PM,34.7,17.4,49,30.33,10.0,SE,3.5,-,N/A,,Clear,130,2014-01-16 21:35:00
2:55 PM,35.1,16.0,46,30.34,10.0,Calm,Calm,-,N/A,,Clear,0,2014-01-16 21:55:00
3:15 PM,37.0,16.0,42,30.34,10.0,Calm,Calm,-,N/A,,Clear,0,2014-01-16 22:15:00
3:35 PM,32.4,18.1,56,30.33,10.0,Calm,Calm,-,N/A,,Clear,0,2014-01-16 22:35:00
3:55 PM,33.8,16.2,49,30.34,10.0,Calm,Calm,-,N/A,,Clear,0,2014-01-16 22:55:00
4:15 PM,32.9,16.7,51,30.34,10.0,Calm,Calm,-,N/A,,Clear,0,2014-01-16 23:15:00
4:35 PM,31.6,16.5,54,30.35,10.0,Calm,Calm,-,N/A,,Clear,0,2014-01-16 23:35:00
4:55 PM,24.3,14.7,67,30.34,10.0,ENE,3.5,-,N/A,,Clear,60,2014-01-16 23:55:00
5:15 PM,20.8,12.9,71,30.35,10.0,ENE,4.6,-,N/A,,Clear,60,2014-01-17 00:15:00
5:35 PM,19.2,12.2,74,30.35,10.0,ENE,8.1,-,N/A,,Clear,70,2014-01-17 00:35:00
5:55 PM,19.9,12.7,74,30.35,10.0,ENE,5.8,-,N/A,,Clear,60,2014-01-17 00:55:00
6:15 PM,20.5,12.6,71,30.35,10.0,NE,3.5,-,N/A,,Clear,50,2014-01-17 01:15:00
6:35 PM,18.0,11.3,75,30.35,10.0,ENE,6.9,-,N/A,,Clear,60,2014-01-17 01:35:00
6:55 PM,17.4,11.1,76,30.36,10.0,Calm,Calm,-,N/A,,Clear,0,2014-01-17 01:55:00
7:15 PM,15.3,9.9,79,30.35,10.0,Calm,Calm,-,N/A,,Clear,0,2014-01-17 02:15:00
7:35 PM,16.7,10.6,77,30.36,10.0,Calm,Calm,-,N/A,,Clear,0,2014-01-17 02:35:00
7:55 PM,16.5,10.4,77,30.36,10.0,Calm,Calm,-,N/A,,Clear,0,2014-01-17 02:55:00
8:15 PM,13.5,8.4,80,30.36,10.0,Calm,Calm,-,N/A,,Clear,0,2014-01-17 03:15:00
8:35 PM,12.2,7.5,82,30.36,10.0,Calm,Calm,-,N/A,,Clear,0,2014-01-17 03:35:00
8:55 PM,10.8,6.8,84,30.36,10.0,Calm,Calm,-,N/A,,Clear,0,2014-01-17 03:55:00
9:15 PM,12.0,7.5,82,30.37,10.0,Calm,Calm,-,N/A,,Clear,0,2014-01-17 04:15:00
9:35 PM,12.6,8.1,82,30.37,10.0,ESE,3.5,-,N/A,,Clear,110,2014-01-17 04:35:00
9:55 PM,14.4,9.9,82,30.38,10.0,Calm,Calm,-,N/A,,Clear,0,2014-01-17 04:55:00
10:15 PM,9.9,4.8,80,30.37,10.0,Calm,Calm,-,N/A,,Clear,0,2014-01-17 05:15:00
10:35 PM,11.7,7.2,82,30.37,10.0,Calm,Calm,-,N/A,,Clear,0,2014-01-17 05:35:00
10:55 PM,7.9,4.3,85,30.37,10.0,Calm,Calm,-,N/A,,Clear,0,2014-01-17 05:55:00
11:15 PM,5.4,1.8,85,30.37,10.0,Calm,Calm,-,N/A,,Clear,0,2014-01-17 06:15:00
11:35 PM,9.3,4.1,79,30.38,10.0,Calm,Calm,-,N/A,,Clear,0,2014-01-17 06:35:00
11:55 PM,6.4,2.5,84,30.37,10.0,East,3.5,-,N/A,,Scattered Clouds,100,2014-01-17 06:55:00